Regional Weather Roundup
Issued by NWS

Home | Current Version | Previous Version | Text Only | Print | Product List | Glossary On
Versions: 1 2 3 4 5 6 7 8 9 10 11 12 13 14 15 16 17 18 19 20 21 22 23 24 25 26 27 28 29 30 31 32 33 34 35 36 37 38 39 40 41 42 43 44 45 46 47 48 49 50
000
ASUS43 KMKX 201511
RWRWI

WISCONSIN REGIONAL WEATHER ROUNDUP
NATIONAL WEATHER SERVICE MILWAUKEE/SULLIVAN WI
900 AM CST SAT DEC 20 2014

NOTE: "FAIR" INDICATES FEW OR NO CLOUDS BELOW 12,000 FEET WITH NO
SIGNIFICANT WEATHER AND/OR OBSTRUCTIONS TO VISIBILITY.

WIZ001-002-006>008-014>016-023>028-201600-
NORTHWEST WISCONSIN

CITY           SKY/WX    TMP DP  RH WIND       PRES   REMARKS
SUPERIOR ARPT  CLOUDY    29  26  88 SE3       30.16F
ASHLAND        CLOUDY    27  23  85 CALM      30.19S
HAYWARD        CLOUDY    26  22  84 S6        30.16F FOG     WCI  19
SIREN          CLOUDY    29  25  85 S7        30.16S WCI  22
CUMBERLAND     CLOUDY    28  23  80 S7        30.16S FOG     WCI  21
RICE LAKE      CLOUDY    28  24  84 SE8       30.18F WCI  20
CHETEK         CLOUDY    28  24  86 SE6       30.19S WCI  21
LADYSMITH      CLOUDY    28  24  86 SE3       30.20S
EAU CLAIRE     CLOUDY    28  22  78 S6        30.19S WCI  22
MENOMONIE      CLOUDY    29  25  83 SE5       30.19S FOG     WCI  24
NEW RICHMOND   CLOUDY    29  27  91 S8        30.16F FOG     WCI  21
OSCEOLA        CLOUDY    30  26  88 SE8       30.19S FOG     WCI  22
$$

WIZ003>005-009-010-017-018-201600-
NORTH CENTRAL WISCONSIN

CITY           SKY/WX    TMP DP  RH WIND       PRES   REMARKS
MANITOWISH WTR CLOUDY    23  23 100 S5        30.17R FOG     WCI  17
ARBOR VITAE    CLOUDY    24  22  93 S3        30.17S FOG
WOODRUFF       CLOUDY    24  22  93 S3        30.17S FOG
RHINELANDER    CLOUDY    23  21  92 CALM      30.19R FOG
EAGLE RIVER    CLOUDY    23  22  99 CALM      30.18R FOG
LAND O LAKES   CLOUDY    23  22  96 CALM      30.18S FOG
PHILLIPS       CLOUDY    24  22  92 S5        30.17S WCI  18
TOMAHAWK       CLOUDY    24  22  94 CALM      30.19S FOG
MEDFORD        CLOUDY    25  23  93 S5        30.18S FOG     WCI  19
MERRILL        CLOUDY    25  24  96 CALM      30.20S FOG
$$

WIZ029-030-035-036-043>047-201600-
CENTRAL WISCONSIN

CITY           SKY/WX    TMP DP  RH WIND       PRES   REMARKS
WAUSAU         CLOUDY    25  23  92 SE3       30.20S FOG
MOSINEE        CLOUDY    25  25 100 S6        30.22  FOG     WCI  18
MARSHFIELD     CLOUDY    26  23  88 S6        30.20S FOG     WCI  19
STEVENS POINT  CLOUDY    24  22  91 SE3       30.23S FOG
WAUPACA        CLOUDY    28  23  83 CALM      30.26R HAZE
WAUTOMA        CLOUDY    26  24  92 CALM      30.26R FOG
WISC RAPIDS    CLOUDY    26  22  84 S3        30.24R
CAMP DOUGLAS   FLURRIES  27  27 100 SE8       30.23R WCI  18
$$

WIZ011>013-019>022-031-037>040-048>050-201600-
NORTHEAST WISCONSIN

CITY           SKY/WX    TMP DP  RH WIND       PRES   REMARKS
ANTIGO         CLOUDY    22  22  99 CALM      30.20S FOG
SHAWANO        CLOUDY    25  22  89 CALM      30.26S
OCONTO         CLOUDY    22  21  96 CALM      30.28R
STURGEON BAY   CLOUDY    25  19  80 CALM      30.28S
GREEN BAY      CLOUDY    24  21  88 CALM      30.27S FOG
MANITOWOC      CLOUDY    28  23  81 N3        30.27S
APPLETON       PTSUNNY   25  19  80 VRB3      30.26S
CLINTONVILLE   CLOUDY    27  23  86 CALM      30.26R FOG
OSHKOSH        CLOUDY    26  20  77 CALM      30.26R HAZE
$$

WIZ032>034-041-042-053>061-201600-
SOUTHWEST WISCONSIN

CITY           SKY/WX    TMP DP  RH WIND       PRES   REMARKS
LA CROSSE      CLOUDY    31  24  75 S8        30.22S WCI  23
SPARTA         CLOUDY    28  24  83 SE5       30.23S WCI  23
VIROQUA        CLOUDY    27  27 100 SE3       30.20S
BOSCOBEL       CLOUDY    30  25  81 CALM      30.25R
PRAIRIE DU CHI MIX PCPN  29  26  90 E5        30.24S WCI  24
PLATTEVILLE    CLOUDY    28  27  93 CALM      30.24R
$$

WIZ056-057-062-063-064-067-068-201600-
SOUTH CENTRAL WISCONSIN

CITY           SKY/WX    TMP DP  RH WIND       PRES   REMARKS
REEDSBURG      CLOUDY    27  24  89 CALM      30.24R
BARABOO/DELLS  CLOUDY    27  24  89 S5        30.24R FOG     WCI  21
LONE ROCK      CLOUDY    31  24  75 E7        30.25S WCI  24
MINERAL POINT  CLOUDY    30  28  93 SE3       30.22S FOG
MADISON        LGT SNOW  27  23  85 S6        30.25R FOG     WCI  20
MIDDLETON      CLOUDY    29  25  85 S3        30.25R
WATERTOWN      LGT SNOW  26  24  92 CALM      30.26R
MONROE         CLOUDY    28  27  93 SE3       30.23S FOG
JANESVILLE     CLOUDY    28  25  86 CALM      30.26S FOG
$$

WIZ051-052-058>065-066-070>072-201600-
SOUTHEAST WISCONSIN

CITY           SKY/WX    TMP DP  RH WIND       PRES   REMARKS
MILWAUKEE      CLOUDY    27  19  72 W3        30.28R
WAUKESHA       CLOUDY    27  19  74 CALM      30.27S
MILWAUKEE/TIMM CLOUDY    27  19  74 W3        30.28S
RACINE         CLOUDY    27  19  72 NW3       30.29S
BURLINGTON     CLOUDY    26  20  80 CALM      30.27S
KENOSHA        CLOUDY    27  21  78 W3        30.27S
FOND DU LAC    CLOUDY    26  21  81 CALM      30.26S
SHEBOYGAN      PTSUNNY   28  20  71 NE3       30.26S
WEST BEND      CLOUDY    27  19  74 CALM      30.25F
JUNEAU         LGT SNOW  25  22  89 E5        30.26S WCI  19
$$

LSZ147-162-201600-
LAKE SUPERIOR

STATION/POSITION TIME  TEMP    WIND        PRES    WAVE
                       AIR SEA DIR/SP/G            HT/PER
                 (UTC) (F)     (DEG/KT/KT) (MB)    (FT/S)
DEVILS ISLAND    1500   29     190/  5/  7 1023.1S
PORT WING        1400   29     170/  9/ 14 1021.7S
SAXON HARBOR     1400   28     190/  4/  8 1022.0
$$

LMZ867-665-643>646-201600-
LAKE MICHIGAN

STATION/POSITION TIME  TEMP    WIND        PRES    WAVE
                       AIR SEA DIR/SP/G            HT/PER
                 (UTC) (F)     (DEG/KT/KT) (MB)    (FT/S)
CHAMBERS ISLAND  1400   22     240/  5/  6 1025.1
NORTHPORT PIER   1428   24     240/  2/  5 1025.1S
SISTER BAY       1358             CALM       N/A
ALGOMA LAKESHORE 1414          320/  6/  8   N/A
KEWAUNEE LAKESHO 1400   26     290/  4/  6 1024.0F
SHEBOYGAN LAKESH 1500   29 33  340/  4/  5 1026.1S
PORT WASHINGTON  1440   27     280/  5/  7 1025.7S
MILWAUKEE LAKESH 1400   28     280/  5/  7   N/A
KENOSHA   LAKESH 1500   28     270/  2/  3 1025.4R
$$

TC  - TEMPERATURE IN CELSIUS
VSB - VISIBILITY IN STATUTE MILES
WCI - WIND CHILL INDEX
HX  - HEAT INDEX



USA.gov is the U.S. government's official web portal to all federal, state and local government web resources and services.